Location: Table Rock
(44.3339°N, 118.3154°W)
Time: 14:30:20
(UTC-07:00)

Daily predictions for brighter satellites

Satellite Brightness Start Highest point End
(mag) Time Altitude Azimuth Time Altitude Azimuth Time Altitude Azimuth
Cosmos 1733 Rocket 3.9 20:15:40 10° N 20:19:45 34° ENE 20:23:49 10° SE
Cosmos 2322 Rocket 2.4 20:16:55 10° S 20:22:18 51° ESE 20:27:44 10° NE
Milstar 3 4.4 20:16:26 10° WSW 20:23:14 24° S 20:28:34 10° SE
USA 186 1.4 20:21:58 10° SSE 20:24:42 66° ENE 20:27:41 10° N
Cosmos 1825 2.5 20:21:01 10° N 20:24:44 49° ENE 20:28:25 10° SSE
Cosmos 1992 Rocket 4.4 20:23:57 10° S 20:28:48 40° ESE 20:33:41 10° NE
Cosmos 1862 Rocket 4.3 20:25:52 10° SSE 20:29:51 33° E 20:33:53 10° NNE
Meteor 2-20 Rocket 4.5 20:23:54 10° N 20:30:01 70° E 20:36:07 10° SSE
Cosmos 2360 Rocket 3.2 20:27:09 10° SSE 20:31:33 24° ESE 20:36:00 10° NE
SAR-Lupe-4 3.8 20:28:22 10° SSE 20:31:52 53° ENE 20:35:23 10° N
Cosmos 1980 Rocket 3.2 20:26:39 10° SW 20:32:11 53° WNW 20:37:47 10° NNE
Cosmos 1092 Rocket 4.5 20:30:54 10° NNW 20:37:12 68° W 20:43:28 10° S
Cosmos 1315 Rocket 4.0 20:34:02 10° NNW 20:37:56 45° W 20:41:46 10° SSW
Cosmos 1634 Rocket 4.1 20:32:08 10° S 20:38:26 88° E 20:44:49 10° N
Helios 1A 3.0 20:34:29 10° SSE 20:38:41 72° ENE 20:42:57 10° N
CZ-2D R/B 4.1 20:38:15 10° S 20:42:04 52° W 20:45:53 10° NNW
Resurs 1-3 4.4 20:37:52 10° S 20:42:09 53° W 20:46:28 10° NNW
SPOT 5 4.5 20:41:19 10° ESE 20:44:28 18° ENE 20:47:36 10° NNE
Cosmos 1408 2.6 20:42:28 10° N 20:46:11 85° W 20:49:50 10° S
Cosmos 1933 3.7 20:43:00 10° SSE 20:46:49 43° E 20:50:39 10° NNE
ATLAS 5 CENTAUR R/B 2.7 20:41:43 10° NNW 20:47:33 58° NE 20:53:09 13° SE
SAR-Lupe-1 4.0 20:45:41 10° SSE 20:49:16 75° ENE 20:52:51 10° N
SL-16 R/B 2.2 20:45:50 10° SSW 20:51:31 84° ESE 20:57:13 10° NNE
Cosmos 1655 Rocket 4.0 20:45:24 10° N 20:51:50 78° E 20:58:11 10° SSE
Cosmos 1503 Rocket 4.4 20:48:01 10° NNW 20:53:14 64° WSW 20:58:21 10° S
USA 267 3.8 20:51:15 10° NE 20:57:42 62° NNW 21:04:07 10° WSW
Cosmos 2242 Rocket 3.8 20:54:09 10° SSW 20:58:39 76° W 21:03:10 10° N
ARGOS 4.3 20:56:45 15° ESE 21:00:13 28° ENE 21:04:42 10° N
Meteor 1-29 2.9 20:58:34 10° NNE 21:02:04 79° ESE 21:05:31 10° S
Cosmos 1862 3.4 21:00:02 10° N 21:04:05 82° W 21:08:07 10° S
Cosmos 968 Rocket 3.8 20:59:04 10° NNW 21:04:09 52° ENE 21:07:55 18° SE
Cosmos 1867 3.7 21:03:08 10° NNW 21:08:35 64° NE 21:12:24 20° SE
Cosmos 2278 Rocket 4.3 21:06:51 10° N 21:09:56 15° NE 21:12:59 10° ENE
H-2A R/B 3.4 21:11:38 16° E 21:13:53 21° ENE 21:17:33 10° NNE
Cosmos 1844 Rocket 3.8 21:09:30 10° N 21:14:20 29° NE 21:17:30 18° E
Cosmos 2279 Rocket 4.1 21:10:54 10° S 21:17:08 80° W 21:23:24 10° N
Envisat 3.5 21:12:57 10° S 21:17:58 60° W 21:23:00 10° NNW
Resurs 01 Rocket 4.1 21:15:24 10° SW 21:18:42 20° W 21:22:02 10° NW
YAOGAN 6 2.5 21:19:15 21° SSE 21:21:36 84° E 21:25:14 10° N
Cosmos 489 Rocket 4.5 21:15:25 10° NNW 21:21:49 83° ENE 21:26:40 18° SSE
Cosmos 1939 Rocket 3.4 21:17:50 10° S 21:21:50 57° W 21:25:46 10° NNW
Helios 1B rocket 3.6 21:23:09 10° N 21:27:04 45° WNW 21:30:59 10° SW
Lacrosse 4 Rocket 3.5 21:24:57 10° NW 21:28:26 24° WSW 21:31:59 10° SSW
Meteor 1-26 Rocket 4.2 21:25:24 10° S 21:31:02 70° E 21:36:49 10° NNE
MetOp-A 4.2 21:27:52 23° SSE 21:31:15 65° ENE 21:36:34 10° N
CZ-4C R/B 4.1 21:25:39 10° NNW 21:31:33 30° NE 21:37:06 13° E
Abrixas rocket 3.5 21:29:30 10° WNW 21:32:36 38° N 21:34:46 17° ENE
USA 234 3.4 21:28:34 21° SE 21:33:08 66° SW 21:39:39 10° NW
H-2A R/B 3.7 21:34:37 18° ENE 21:35:30 19° ENE 21:38:31 10° NNE
Cosmos 2219 Rocket 3.5 21:36:26 21° E 21:36:26 21° E 21:40:03 10° NE
Sich 1 Rocket 3.6 21:31:57 10° N 21:36:26 85° W 21:39:16 23° S
Terra 3.4 21:36:25 18° E 21:37:40 19° ENE 21:41:01 10° NNE
Cosmos 1908 Rocket 3.6 21:34:40 10° N 21:39:01 79° W 21:41:37 24° S
Meteor 2-10 Rocket 3.9 21:39:13 10° SSW 21:45:02 79° W 21:50:51 10° N
ERS-1 Rocket 3.2 21:42:05 20° S 21:45:37 68° WSW 21:50:39 10° NNW
Atlas Centaur 2 3.8 21:43:24 10° SW 21:49:22 28° S 21:50:58 26° SSE
SeaSat 1 2.5 21:50:41 37° SE 21:52:35 66° ENE 21:57:29 10° NNW
Cosmos 1782 Rocket 3.4 21:48:59 10° N 21:53:23 87° E 21:54:56 40° S
USA 245 4.0 21:52:21 31° SSE 21:55:09 78° ENE 22:00:03 10° N
Cosmos 2263 Rocket 3.5 21:50:56 10° NW 21:55:52 33° WSW 22:00:07 13° SSW
SPOT 1/Viking Rocket 3.6 21:59:25 40° SE 22:01:14 66° ENE 22:06:25 10° N
Cosmos 2237 4.1 21:55:41 10° SSW 22:01:22 75° ESE 22:07:07 10° NNE
BREEZE-M DEB (TANK) 4.2 21:58:03 10° W 22:02:06 80° N 22:16:41 10° E
Okean 2 Rocket 3.0 21:58:19 10° N 22:02:52 79° E 22:03:59 50° SSE
Cosmos 1633 3.9 22:01:57 10° NNE 22:04:33 27° NE 22:04:33 27° NE
Cosmos 2322 Rocket 4.3 22:01:51 10° WSW 22:06:37 28° NW 22:11:25 10° N
MOS 1-B Rocket 3.8 22:06:45 34° SSE 22:09:30 87° WSW 22:15:09 10° NNW
COSMOS 2428 2.6 22:07:13 26° S 22:10:30 69° ESE 22:16:11 10° NNE
Okean 1-7 3.1 22:09:51 39° SSW 22:11:27 79° W 22:15:53 10° N
Cosmos 1777 Rocket 4.0 22:07:39 10° NNW 22:12:57 81° WSW 22:14:35 45° S
Cosmos 2360 Rocket 2.9 22:09:39 10° SW 22:15:09 54° WNW 22:20:44 10° NNE
NOSS 3-1 (C) 3.6 22:15:44 43° ESE 22:15:58 44° ESE 22:21:58 10° NE
Meteor 1-25 Rocket 4.3 22:12:28 10° NNW 22:18:01 70° W 22:20:20 36° S
Cosmos 1606 3.2 22:20:41 49° NE 22:20:41 49° NE 22:23:41 10° NNE
USA 229 DEB 3.7 22:13:56 10° SW 22:20:46 81° NW 22:27:47 10° NE
USA 229 3.7 22:14:02 10° SW 22:20:52 82° NW 22:27:54 10° NE
SPOT 5 3.3 22:20:33 37° SSW 22:22:11 56° W 22:26:44 10° NNW
Cosmos 1844 3.7 22:18:14 10° NNW 22:23:55 73° ENE 22:25:11 53° SE
ASTEX 1 3.5 22:28:45 56° E 22:29:04 57° E 22:33:58 10° N
deb Chang Zheng 4 4.4 22:25:27 10° NNE 22:28:38 38° ENE 22:28:38 38° ENE
SL-16 R/B 4.4 22:32:42 11° ENE 22:32:42 11° ENE 22:33:01 10° ENE
NOSS 3-1 (A) 3.9 22:32:32 39° E 22:32:32 39° E 22:37:32 10° NE
ATLAS 5 CENTAUR R/B 3.7 22:26:51 10° NW 22:32:07 31° WSW 22:34:44 23° SSW
Cosmos 2084 4.0 22:29:45 10° NNW 22:33:06 44° NNE 22:33:06 44° NNE
Cosmos 2151 Rocket 3.5 22:32:20 10° N 22:36:45 86° NE 22:36:45 86° NE
Cosmos 1417 Rocket 4.4 22:38:05 50° S 22:39:50 79° E 22:46:12 10° N
Cosmos 1745 Rocket 4.1 22:33:48 10° N 22:40:04 59° ENE 22:41:10 52° ESE
ARGOS 4.0 22:38:14 31° SSW 22:40:14 44° W 22:45:22 10° NNW
CARTOSAT-1 3.6 22:43:26 70° NNE 22:43:26 70° NNE 22:47:24 10° N
Meteor 2-6 Rocket 4.3 22:45:15 47° SSW 22:47:05 82° W 22:53:05 10° N
CRYOSAT 2 4.4 22:50:18 66° ENE 22:50:18 66° ENE 22:54:55 10° N
Cosmos 2333 4.5 22:46:59 26° SW 22:50:18 68° WNW 22:56:05 10° NNE
Cosmos 2333 Rocket 2.1 22:50:21 67° ESE 22:50:24 67° ESE 22:56:08 10° NNE
Cosmos 2237 Rocket 2.7 22:52:57 46° ENE 22:52:57 46° ENE 22:57:30 10° NE
H-2A R/B 2.4 22:52:15 47° SW 22:52:58 51° W 22:57:48 10° NNW
Cosmos 1782 3.9 22:53:17 40° W 22:53:29 40° WNW 22:57:19 10° N
Cosmos 2278 Rocket 2.1 22:49:24 10° NNW 22:55:05 71° ENE 22:55:31 68° E
Geosat 4.0 22:50:58 10° NNE 22:55:32 69° ENE 22:55:32 69° ENE
Okean 1 Rocket 3.8 22:52:48 10° N 22:56:16 45° NE 22:56:16 45° NE
DMSP B5D2-2 4.0 22:52:37 10° NNE 22:57:56 82° WNW 22:58:31 70° SW
Cosmos 1844 Rocket 3.2 22:53:07 10° NW 22:58:26 47° WSW 22:59:11 44° SW
Landsat 7 4.2 22:59:43 52° WSW 22:59:53 53° W 23:04:33 10° NNW
CZ-4B R/B 4.0 22:55:57 10° NNE 22:59:32 46° NE 22:59:32 46° NE
Cosmos 1674 Rocket 4.2 23:02:25 51° NNE 23:02:25 51° NNE 23:05:41 10° N
Cosmos 2298 Rocket 4.4 22:56:17 10° NNW 23:01:28 52° ENE 23:01:28 52° ENE
ATLAS 3B R/B 4.3 22:57:31 10° NNW 23:03:14 26° NNE 23:07:12 16° ENE
IGS 5A 4.3 23:09:30 48° NW 23:09:30 48° NW 23:12:46 10° NNW
Cosmos 1346 Rocket 4.1 23:12:23 39° NNW 23:12:23 39° NNW 23:15:06 10° N
H-2A R/B 3.0 23:11:44 43° WNW 23:11:44 43° WNW 23:15:21 10° NNW
Meteor 1-5 Rocket 4.2 23:08:05 10° N 23:13:41 68° ENE 23:13:41 68° ENE
Cosmos 1570 Rocket 4.4 23:13:20 55° WSW 23:14:05 61° WNW 23:19:21 10° NNE
Terra 2.3 23:15:18 52° W 23:15:18 52° W 23:19:41 10° NNW
NOSS 0 Rocket 3.8 23:14:35 76° SSW 23:15:07 87° ESE 23:21:19 10° NNE
Cosmos 2219 Rocket 2.6 23:18:03 46° WSW 23:19:26 60° WNW 23:25:01 10° NNE
CZ-4C R/B 2.8 23:13:49 10° NW 23:20:57 87° SW 23:22:17 65° SSE
Cosmos 2208 Rocket 4.5 23:21:27 53° W 23:22:11 58° WNW 23:27:26 10° NNE
Cosmos 1553 Rocket 4.3 23:21:51 49° SW 23:23:17 61° W 23:29:28 10° N
Spot 4 4.2 23:26:02 61° NW 23:26:02 61° NW 23:30:03 10° NNW
Meteor 1-27 Rocket 4.0 23:24:39 54° WSW 23:25:22 59° WNW 23:30:54 10° N
Cosmos 2315 Rocket 4.3 23:26:16 52° ENE 23:26:16 52° ENE 23:31:52 10° NNE
Cosmos 1937 Rocket 3.7 23:22:25 10° NNW 23:27:04 64° NNE 23:27:04 64° NNE
SeaSat 1 4.4 23:30:29 18° WSW 23:30:29 18° WSW 23:33:51 10° WNW
Cosmos 2150 Rocket 4.2 23:31:01 10° NNW 23:35:54 72° NNW 23:35:54 72° NNW
Timation 1 Rocket 4.3 23:31:00 10° NNW 23:36:45 74° W 23:36:45 74° W
CZ-4 R/B 4.4 23:32:23 10° N 23:36:43 53° NW 23:36:43 53° NW
Cosmos 990 Rocket 4.4 23:34:28 10° NNW 23:38:45 60° N 23:38:45 60° N
Cosmos 2297 3.8 23:43:16 10° NNW 23:48:23 72° NNW 23:48:23 72° NNW
Cosmos 1898 Rocket 4.2 23:44:31 10° NNW 23:48:37 46° WNW 23:48:37 46° WNW
CZ-2C R/B 4.0 23:52:07 37° NE 23:52:07 37° NE 23:55:44 10° N
Cosmos 2369 Rocket 4.1 23:47:12 10° N 23:51:14 20° NE 23:52:45 18° ENE
Cosmos 883 Rocket 4.5 23:52:06 73° W 23:52:08 73° W 23:58:16 10° N
